Location: Altmatt
(47.1333°N, 8.7000°E)
Time: 02:45:26
(UTC+00:00)

Cosmos 1346 Rocket - Pass Details

Date: 13 July 2020
Orbit: 533 x 546 km, 81.2° (Epoch: 04 August)

Event Time Altitude Azimuth Distance (km) Brightness Sun altitude
Exits shadow 23:02:20 30° 249° (WSW) 981 3.9 -20.9°
Maximum altitude 23:03:28 37° 287° (WNW) 848 3.9 -20.9°
Drops below altitude 10° 23:07:10 10° 356° (N) 1,800 6.6 -21.0°
Sets 23:09:28 0° 5° (N) 2,697 7.8 -21.1°
